Regional Weather Roundup
Issued by NWS Charleston, SC

Current Version | Previous Version | Graphics & Text | Print | Product List | Glossary On
Versions: 1 2 3 4 5 6 7 8 9 10 11 12 13 14 15 16 17 18 19 20 21 22 23 24 25 26 27 28 29 30 31 32 33 34 35 36 37 38 39 40 41 42 43 44 45 46 47 48 49 50
000
ASUS42 KCHS 140825
RWRCHS

REGIONAL WEATHER ROUNDUP
NATIONAL WEATHER SERVICE CHARLESTON SC
400 AM EDT MON JUL 14 2014

NOTE: "FAIR" INDICATES FEW OR NO CLOUDS BELOW 12,000 FEET WITH NO
SIGNIFICANT WEATHER AND/OR OBSTRUCTIONS TO VISIBILITY.

NOT ALL STATIONS ARE QUALITY CONTROLLED BY THE NATIONAL
WEATHER SERVICE. USE DATA WITH CAUTION...ESPECIALLY
DEWPOINT OBSERVATIONS.

SCZ027-030-031-034>040-042>050-140900-
...SOUTH CAROLINA...

CITY           SKY/WX    TMP DP  RH WIND       PRES   REMARKS
N CHARLESTON   MOCLDY    79  75  87 SW6       30.04F
WATERFRONT PRK   N/A     81 N/A N/A SW3         N/A
FORT JOHNSON   NOT AVBL
MOUNT PLEASANT FAIR      75  75 100 CALM      30.04F
JOHNS ISLAND   SUNNY     79  68  69 CALM      30.05S
PINOPOLIS        N/A     79  73  83 SW5       29.97F
MONCKS CORNER    N/A     75  75 100 CALM      30.04F
SUMMERVILLE    FAIR      72  72 100 CALM      30.05F
BEAUFORT MCAS  PTCLDY    79  75  87 W8        30.05F
BEAUFORT ARPT  FAIR      79  77  94 SW5       30.05S
HILTON HEAD IS CLEAR     79  77  94 S6        30.06F
GEORGETOWN     NOT AVBL
WALTERBORO     PTSUNNY   77 N/A N/A SW7       30.06S
ORANGEBURG     MOCLDY    74  72  93 SW5       30.05F
BARNWELL       PTSUNNY   75  73  94 SW5       30.06S
AIKEN          FAIR      73  73 100 S7        30.08S
MANNING        FAIR      79 N/A N/A SW7       30.04F
KINGSTREE      NOT AVBL
COLUMBIA       PTCLDY    76  72  87 SW3       30.03S
SUMTER         CLEAR     74  73  96 S6        30.02F
FLORENCE       CLEAR     75  72  90 SW5       30.03F
MYRTLE BEACH   PTCLDY    75  72  88 W5        30.05S
N MYRTLE BEACH CLEAR     77  72  84 W6        30.04F

$$

GAZ063-065-086>088-099>101-113>116-118-119-134-136>141-150-140900-
...GEORGIA...

CITY           SKY/WX    TMP DP  RH WIND       PRES   REMARKS
SAVANNAH ARPT  PTCLDY    77  73  88 SW7       30.06F
HUNTER AAF     CLEAR     77  76  98 SW6       30.04F
FORT STEWART   MOCLDY    75  75 100 SW5       30.05F
STATESBORO     NOT AVBL
SYLVANIA       PTSUNNY   76  76  99 CALM      30.07S
CLAXTON        PTSUNNY  N/A N/A N/A SW3       30.06S
THOMSON        CLEAR     75  73  95 S5        30.09R
AUGUSTA-BUSH   CLEAR     73  71  93 SE3       30.04S
AUGUSTA-DANIEL PTCLDY    77  73  87 S7        30.05F
SWAINSBORO     FAIR      77  77 100 S3        30.07R
VIDALIA          N/A     75  73  94 SW3       30.07S
ALMA           PTCLDY    75  72  90 S5        30.07S
WAYCROSS       CLEAR     78  77  96 SW5       30.06F
JESUP          NOT AVBL
BRUNSWICK      CLEAR     79  73  83 CALM      30.07F
SAINT SIMONS   PTCLDY    79  76  90 S5        30.07S

$$

SCZ027-028-034-036>038-045-046-048>050-GAZ119-141-140900-
...LAKE AND SUPPLEMENTAL COASTAL OBSERVATIONS...

STATION/POSITION TIME  TEMP    WIND        PRES    WAVE   SWELL
                       AIR SEA DIR/SP/G            HT/PER HT/PER/DIR
                 (UTC) (F)     (DEG/KT/KT) (MB)    (FT/S) (FT/S/D)
UPR LAKE MARION  NOT AVBL
WINYAH BAY       0800   76     250/  3     1017.0S
LAKE MURRAY      0700   78     220/  7/ 11 1016.3F
ACE BASIN NERRS  0800   79        CALM     1018.0S
FORT PULASKI     0800   79 77  240/  5/  8   N/A
SAPELO ISLAND    0800   79     220/  8     1018.0S

$$

ANZ835-935-AMZ111-154-330-350-352-354-374-450-454-472-140900-
...C-MAN AND BUOY OBSERVATIONS...

STATION/POSITION TIME  TEMP    WIND        PRES    WAVE   SWELL
                       AIR SEA DIR/SP/G            HT/PER HT/PER/DIR
                 (UTC) (F)     (DEG/KT/KT) (MB)    (FT/S) (FT/S/D)
FOLLY BEACH CMAN 0800   81     220/ 13/ 15 1017.7F
BUOY 41004       0800   81 82  220/ 16/ 17 1016.9F   4/ 4   2/ 8
BUOY 41008       0800   82 84  210/ 14/ 17 1017.8F   3/ 8   2/130/ 8
5E ST. MARYS GA  0800      83                N/A     2/ 8
FRYING PAN BUOY  NOT AVBL
BUOY 41025       0800          VRB 16/ 17  1017.0F   4/ 8   2/140/ 8
CAPE LOOKOUT NC  0800   79     230/  7/  9 1017.1F
BUOY 41002       0651   81 83  220/ 12/ 14 1019.6    3/ 9   3/140/ 9
BUOY 41010       0800   82 83  180/ 10/ 12 1019.0F   3/ 8   3/130/ 8
BUOY 41012       NOT AVBL
ST AUGUSTINE FL  0800   76     230/  5/  7 1019.3F
CAPERS NEARSHORE 0700   82     230/ 16/ 19   N/A
FRIPP NEARSHORE  0700   82     240/ 14/ 17   N/A


$$



USA.gov is the U.S. government's official web portal to all federal, state and local government web resources and services.